Weather History for Indianapolis, IN

Change the Weather History Date:

Sunday, December 15, 2013

  Actual Average Record
Temperature  
Mean Temperature 22 °F 31 °F  
Max Temperature 27 °F 39 °F 69 °F (1948)
Min Temperature 17 °F 24 °F -10 °F (1951)
Degree Days  
Heating Degree Days 43 34  
Month to date heating degree days 538 468  
Since 1 July heating degree days 1682 1510  
Cooling Degree Days 0 0  
Month to date cooling degree days 0 0  
Year to date cooling degree days 1160 1066  
Moisture  
Dew Point 17 °F    
Average Humidity 80    
Maximum Humidity 92    
Minimum Humidity 67    
Precipitation  
Precipitation T in 0.10 in 1.45 in (1975)
Month to date precipitation 0.92 1.53  
Year to date precipitation 42.40 40.80  
Snow  
Snow T in 0.30 in 3.50 in (1947)
Month to date snowfall 7.8 2.7  
Since 1 July snowfall 7.9 3.8  
Snow Depth 4.00 in    
Sea Level Pressure  
Sea Level Pressure 30.06 in    
Wind  
Wind Speed 15 mph (West)    
Max Wind Speed 26 mph    
Max Gust Speed 33 mph    
Visibility 9 miles    
Events Snow    
T = Trace of Precipitation, MM = Missing Value Source: NWS Daily Summary

Daily Weather History Graph

Daily Weather History Graph

Search for Another Location

Airport:

Trip Planner

Search our weather history database for the weather conditions in past years. The results will help you decide how hot, cold, wet, or windy it might be!

Date:

Astronomy

Dec. 15, 2013 Rise Set
Actual Time 7:59 AM EST 5:21 PM EST
Civil Twilight 7:28 AM EST 5:52 PM EST
Nautical Twilight 6:54 AM EST 6:26 PM EST
Astronomical Twilight 6:22 AM EST 6:58 PM EST
Moon 4:25 PM EST (12/15) 6:15 AM EST (12/15)
Length of Visible Light 10h 23m
Length of Day
9h 22m
Waxing Gibbous, 97% of the Moon is Illuminated
Dec 15
Waxing Gibbous
Dec 17
Full
Dec 25
Last Quarter
Jan 1
New
Jan 7
First Quarter

Hourly Weather History & Observations

Time (EST) Temp. Windchill Dew Point Humidity Pressure Visibility Wind Dir Wind Speed Gust Speed Precip Events Conditions
12:54 AM 27.0 °F 14.7 °F 25.0 °F 92% 29.97 in 9.0 mi WNW 16.1 mph - 0.00 in Snow Light Snow
1:31 AM 26.6 °F 14.7 °F 24.8 °F 93% 29.94 in 9.0 mi WNW 15.0 mph - 0.00 in   Overcast
1:54 AM 27.0 °F 13.9 °F 24.1 °F 89% 29.97 in 10.0 mi WNW 18.4 mph 23.0 mph 0.00 in   Overcast
2:54 AM 26.1 °F 12.7 °F 21.9 °F 84% 29.99 in 9.0 mi WNW 18.4 mph 24.2 mph 0.00 in Snow Light Snow
3:54 AM 25.0 °F 11.7 °F 19.9 °F 81% 30.01 in 10.0 mi WNW 17.3 mph - 0.00 in   Overcast
4:54 AM 24.1 °F 11.5 °F 19.0 °F 81% 30.02 in 10.0 mi WNW 15.0 mph 23.0 mph N/A   Overcast
5:02 AM 24.8 °F 13.4 °F 19.4 °F 80% 29.99 in 10.0 mi WNW 12.7 mph 23.0 mph N/A   Overcast
5:30 AM 23.0 °F 9.6 °F 17.6 °F 80% 30.00 in 10.0 mi WNW 16.1 mph - N/A   Overcast
5:54 AM 23.0 °F 9.2 °F 18.0 °F 81% 30.03 in 9.0 mi West 17.3 mph - 0.00 in Snow Light Snow
6:54 AM 21.9 °F 7.8 °F 18.0 °F 85% 30.04 in 9.0 mi West 17.3 mph 21.9 mph 0.00 in   Overcast
7:54 AM 21.9 °F 7.3 °F 18.0 °F 85% 30.05 in 10.0 mi WSW 18.4 mph - N/A   Overcast
8:36 AM 19.4 °F 4.1 °F 15.8 °F 86% 30.03 in 9.0 mi West 18.4 mph 25.3 mph N/A   Overcast
8:54 AM 21.0 °F 7.1 °F 16.0 °F 81% 30.06 in 8.0 mi WSW 16.1 mph - N/A   Overcast
9:54 AM 18.0 °F 0.6 °F 12.0 °F 78% 30.10 in 10.0 mi West 23.0 mph 29.9 mph N/A   Overcast
10:54 AM 17.1 °F 2.5 °F 10.9 °F 77% 30.12 in 6.0 mi West 15.0 mph - 0.00 in Snow Light Snow
11:47 AM 17.6 °F 0.9 °F 10.4 °F 73% 30.06 in 10.0 mi WSW 20.7 mph - 0.00 in   Scattered Clouds
11:54 AM 18.0 °F 1.7 °F 10.9 °F 74% 30.09 in 10.0 mi West 19.6 mph - 0.00 in   Scattered Clouds
12:54 PM 19.0 °F 4.0 °F 12.0 °F 74% 30.09 in 10.0 mi WSW 17.3 mph - N/A   Mostly Cloudy
1:54 PM 19.0 °F 4.0 °F 10.9 °F 71% 30.08 in 10.0 mi WSW 17.3 mph - N/A   Overcast
2:54 PM 19.9 °F 5.7 °F 10.9 °F 68% 30.09 in 10.0 mi WSW 16.1 mph - N/A   Overcast
3:54 PM 21.0 °F 7.6 °F 12.0 °F 68% 30.09 in 10.0 mi WSW 15.0 mph - N/A   Overcast
4:54 PM 21.9 °F 8.7 °F 15.1 °F 75% 30.09 in 10.0 mi WSW 15.0 mph - N/A   Overcast
5:54 PM 21.9 °F 9.8 °F 15.1 °F 75% 30.10 in 10.0 mi WSW 12.7 mph - N/A   Overcast
6:54 PM 21.9 °F 8.7 °F 15.1 °F 75% 30.12 in 10.0 mi WSW 15.0 mph - N/A   Overcast
7:54 PM 21.9 °F 9.8 °F 16.0 °F 78% 30.13 in 10.0 mi WSW 12.7 mph - N/A   Overcast
8:54 PM 23.0 °F 12.4 °F 17.1 °F 78% 30.12 in 9.0 mi SW 10.4 mph - N/A   Overcast
9:54 PM 23.0 °F 12.4 °F 18.0 °F 81% 30.13 in 8.0 mi WSW 10.4 mph - 0.00 in Snow Light Snow
10:54 PM 23.0 °F 15.8 °F 19.0 °F 85% 30.13 in 3.0 mi WSW 5.8 mph - 0.00 in Snow Light Snow
11:54 PM 23.0 °F 17.0 °F 19.0 °F 85% 30.13 in 3.0 mi WNW 4.6 mph - 0.00 in Snow Light Snow